Weather History for Ankeny, IA

Change the Weather History Date:

Tuesday, February 18, 2014

  Actual Average (KDSM) Record (KDSM)
Temperature  
Mean Temperature 40 °F 28 °F  
Max Temperature 53 °F 37 °F 68 °F (1981)
Min Temperature 26 °F 20 °F -13 °F (1903)
Degree Days  
Heating Degree Days 26 37  
Month to date heating degree days 707  
Since 1 July heating degree days 4487  
Cooling Degree Days 0 0  
Month to date cooling degree days 0  
Year to date cooling degree days 0  
Moisture  
Dew Point 28 °F    
Average Humidity 61    
Maximum Humidity 87    
Minimum Humidity 43    
Precipitation  
Precipitation 0.00 in 0.05 in 0.94 in (1961)
Month to date precipitation 0.76  
Year to date precipitation 1.76  
Snow  
Snow 0.00 in 0.30 in 8.50 in (1908)
Month to date snowfall 5.5  
Since 1 July snowfall 25.9  
Snow Depth -    
Sea Level Pressure  
Sea Level Pressure 29.71 in    
Wind  
Wind Speed 8 mph (SW)    
Max Wind Speed 20 mph    
Max Gust Speed 29 mph    
Visibility 10 miles    
Events      
T = Trace of Precipitation, MM = Missing Value Source: NWS Daily Summary

Daily Weather History Graph

Daily Weather History Graph

Search for Another Location

Airport:

Trip Planner

Search our weather history database for the weather conditions in past years. The results will help you decide how hot, cold, wet, or windy it might be!

Date:

Astronomy

Feb. 18, 2014 Rise Set
Actual Time 7:05 AM CST 5:51 PM CST
Civil Twilight 6:37 AM CST 6:19 PM CST
Nautical Twilight 6:04 AM CST 6:52 PM CST
Astronomical Twilight 5:32 AM CST 7:24 PM CST
Moon 9:49 PM CST (2/18) 8:34 AM CST (2/18)
Length of Visible Light 11h 42m
Length of Day
10h 45m
Waning Gibbous, 87% of the Moon is Illuminated
Feb 18
Waning Gibbous
Feb 22
Last Quarter
Mar 1
New
Mar 8
First Quarter
Mar 16
Full

Hourly Weather History & Observations

Time (CST) Temp. Windchill Dew Point Humidity Pressure Visibility Wind Dir Wind Speed Gust Speed Precip Events Conditions
12:15 AM 28.4 °F 22.2 °F 23.0 °F 80% 29.89 in 10.0 mi SSE 5.8 mph - N/A   Clear
12:35 AM 26.6 °F 21.2 °F 23.0 °F 86% 29.87 in 10.0 mi SE 4.6 mph - N/A   Clear
12:55 AM 26.6 °F 21.2 °F 23.0 °F 86% 29.86 in 10.0 mi SE 4.6 mph - N/A   Clear
1:15 AM 28.4 °F 24.6 °F 23.0 °F 80% 29.85 in 10.0 mi SE 3.5 mph - N/A   Clear
1:35 AM 30.2 °F 25.4 °F 23.0 °F 75% 29.85 in 10.0 mi SSE 4.6 mph - N/A   Clear
1:55 AM 30.2 °F 26.7 °F 23.0 °F 75% 29.84 in 10.0 mi SSE 3.5 mph - N/A   Clear
2:15 AM 28.4 °F 24.6 °F 23.0 °F 80% 29.83 in 10.0 mi SE 3.5 mph - N/A   Clear
2:35 AM 28.4 °F - 23.0 °F 80% 29.82 in 10.0 mi Calm Calm - N/A   Clear
2:55 AM 30.2 °F - 23.0 °F 75% 29.80 in 10.0 mi Calm Calm - N/A   Clear
3:15 AM 30.2 °F - 23.0 °F 75% 29.79 in 10.0 mi Calm Calm - N/A   Clear
3:35 AM 30.2 °F 24.3 °F 23.0 °F 75% 29.77 in 10.0 mi South 5.8 mph - N/A   Clear
3:55 AM 30.2 °F 25.4 °F 23.0 °F 75% 29.76 in 10.0 mi South 4.6 mph - N/A   Clear
4:15 AM 30.2 °F 24.3 °F 23.0 °F 75% 29.74 in 10.0 mi South 5.8 mph - N/A   Clear
4:35 AM 30.2 °F 24.3 °F 23.0 °F 75% 29.74 in 10.0 mi South 5.8 mph - N/A   Clear
4:55 AM 33.8 °F 26.4 °F 24.8 °F 70% 29.73 in 10.0 mi South 9.2 mph - N/A   Clear
5:15 AM 33.8 °F 26.4 °F 24.8 °F 70% 29.72 in 10.0 mi South 9.2 mph - N/A   Clear
5:35 AM 33.8 °F 26.4 °F 24.8 °F 70% 29.70 in 10.0 mi South 9.2 mph - N/A   Clear
5:55 AM 35.6 °F 28.6 °F 23.0 °F 60% 29.70 in 10.0 mi South 9.2 mph - N/A   Clear
6:15 AM 35.6 °F 30.7 °F 23.0 °F 60% 29.69 in 10.0 mi South 5.8 mph - N/A   Clear
6:35 AM 35.6 °F 29.2 °F 23.0 °F 60% 29.69 in 10.0 mi South 8.1 mph - N/A   Clear
6:55 AM 37.4 °F 30.3 °F 24.8 °F 60% 29.68 in 10.0 mi South 10.4 mph - N/A   Clear
7:15 AM 39.2 °F 33.0 °F 24.8 °F 56% 29.68 in 10.0 mi SSW 9.2 mph - N/A   Clear
7:35 AM 41.0 °F 33.1 °F 24.8 °F 53% 29.68 in 10.0 mi SSW 15.0 mph - N/A   Clear
7:55 AM 41.0 °F 33.5 °F 24.8 °F 53% 29.68 in 10.0 mi SSW 13.8 mph 20.7 mph N/A   Clear
8:15 AM 42.8 °F 35.4 °F 26.6 °F 53% 29.67 in 10.0 mi SSW 15.0 mph 23.0 mph N/A   Clear
8:35 AM 42.8 °F 35.4 °F 26.6 °F 53% 29.66 in 10.0 mi SSW 15.0 mph 24.2 mph N/A   Clear
8:55 AM 44.6 °F 37.8 °F 26.6 °F 49% 29.65 in 10.0 mi SSW 15.0 mph 24.2 mph N/A   Clear
9:15 AM 44.6 °F 36.9 °F 26.6 °F 49% 29.64 in 10.0 mi SW 18.4 mph 28.8 mph N/A   Clear
9:35 AM 44.6 °F 37.4 °F 26.6 °F 49% 29.63 in 10.0 mi SW 16.1 mph 24.2 mph N/A   Clear
9:55 AM 46.4 °F 40.4 °F 26.6 °F 46% 29.62 in 10.0 mi SW 13.8 mph 21.9 mph N/A   Clear
10:15 AM 46.4 °F 40.4 °F 26.6 °F 46% 29.62 in 10.0 mi SW 13.8 mph - N/A   Clear
10:35 AM 48.2 °F - 26.6 °F 43% 29.62 in 9.0 mi SW 16.1 mph 21.9 mph N/A   Clear
10:55 AM 48.2 °F - 26.6 °F 43% 29.63 in 10.0 mi WSW 17.3 mph 24.2 mph N/A   Clear
11:15 AM 48.2 °F - 28.4 °F 46% 29.62 in 10.0 mi SW 17.3 mph 25.3 mph N/A   Clear
11:35 AM 48.2 °F - 28.4 °F 46% 29.61 in 10.0 mi SW 15.0 mph 28.8 mph N/A   Clear
11:55 AM 50.0 °F - 28.4 °F 43% 29.61 in 10.0 mi WSW 19.6 mph 27.6 mph N/A   Clear
12:15 PM 50.0 °F - 28.4 °F 43% 29.62 in 10.0 mi SW 19.6 mph 27.6 mph N/A   Clear
12:35 PM 50.0 °F - 28.4 °F 43% 29.61 in 10.0 mi SW 18.4 mph 27.6 mph N/A   Clear
12:55 PM 50.0 °F - 30.2 °F 47% 29.59 in 10.0 mi WSW 16.1 mph 23.0 mph N/A   Clear
1:15 PM 50.0 °F - 30.2 °F 47% 29.59 in 10.0 mi WSW 15.0 mph 20.7 mph N/A   Clear
1:35 PM 51.8 °F - 30.2 °F 44% 29.60 in 10.0 mi WSW 13.8 mph - N/A   Clear
1:55 PM 51.8 °F - 32.0 °F 47% 29.61 in 10.0 mi WSW 11.5 mph - N/A   Clear
2:15 PM 50.0 °F - 32.0 °F 50% 29.61 in 10.0 mi WSW 8.1 mph 17.3 mph N/A   Clear
2:35 PM 50.0 °F - 32.0 °F 50% 29.61 in 10.0 mi WSW 9.2 mph 15.0 mph N/A   Clear
2:55 PM 50.0 °F - 32.0 °F 50% 29.61 in 10.0 mi WSW 9.2 mph - N/A   Clear
3:15 PM 50.0 °F - 32.0 °F 50% 29.61 in 10.0 mi SW 9.2 mph - N/A   Clear
3:35 PM 50.0 °F - 33.8 °F 54% 29.61 in 10.0 mi SW 8.1 mph - N/A   Clear
3:55 PM 51.8 °F - 33.8 °F 50% 29.62 in 10.0 mi WSW 6.9 mph - N/A   Clear
4:15 PM 53.6 °F - 33.8 °F 47% 29.63 in 10.0 mi WSW 6.9 mph - N/A   Clear
4:35 PM 51.8 °F - 33.8 °F 50% 29.64 in 10.0 mi West 6.9 mph - N/A   Clear
4:55 PM 51.8 °F - 33.8 °F 50% 29.65 in 10.0 mi WSW 4.6 mph - N/A   Clear
5:15 PM 51.8 °F - 32.0 °F 47% 29.66 in 10.0 mi WSW 4.6 mph - N/A   Clear
5:35 PM 51.8 °F - 32.0 °F 47% 29.67 in 10.0 mi WNW 3.5 mph - N/A   Clear
5:55 PM 50.0 °F - 33.8 °F 54% 29.68 in 10.0 mi West 3.5 mph - N/A   Clear
6:15 PM 50.0 °F - 33.8 °F 54% 29.70 in 10.0 mi WNW 18.4 mph - N/A   Clear
6:35 PM 48.2 °F - 33.8 °F 58% 29.73 in 10.0 mi NW 12.7 mph 19.6 mph N/A   Clear
6:55 PM 44.6 °F 38.4 °F 33.8 °F 66% 29.74 in 10.0 mi NW 12.7 mph 21.9 mph N/A   Clear
7:15 PM 44.6 °F 38.4 °F 30.2 °F 57% 29.77 in 10.0 mi NW 12.7 mph 25.3 mph N/A   Partly Cloudy
7:35 PM 42.8 °F 36.2 °F 30.2 °F 61% 29.78 in 10.0 mi NW 12.7 mph 21.9 mph N/A   Mostly Cloudy
7:55 PM 44.6 °F 38.1 °F 30.2 °F 57% 29.79 in 10.0 mi NNW 13.8 mph 20.7 mph N/A   Mostly Cloudy
8:15 PM 42.8 °F 36.6 °F 32.0 °F 66% 29.79 in 10.0 mi NNW 11.5 mph 17.3 mph N/A   Overcast
8:35 PM 41.0 °F 35.2 °F 32.0 °F 70% 29.80 in 10.0 mi NW 9.2 mph - N/A   Overcast
8:55 PM 41.0 °F 36.4 °F 32.0 °F 70% 29.81 in 10.0 mi NW 6.9 mph - N/A   Overcast
9:15 PM 41.0 °F 35.2 °F 32.0 °F 70% 29.81 in 10.0 mi WNW 9.2 mph - N/A   Scattered Clouds
9:35 PM 41.0 °F 34.7 °F 32.0 °F 70% 29.82 in 10.0 mi NW 10.4 mph - N/A   Clear
9:55 PM 41.0 °F 34.3 °F 32.0 °F 70% 29.82 in 10.0 mi NW 11.5 mph - N/A   Clear
10:15 PM 41.0 °F 34.3 °F 32.0 °F 70% 29.83 in 10.0 mi WNW 11.5 mph 17.3 mph N/A   Clear
10:35 PM 39.2 °F 32.0 °F 32.0 °F 75% 29.83 in 10.0 mi NW 11.5 mph 18.4 mph N/A   Clear
10:55 PM 39.2 °F 33.6 °F 32.0 °F 75% 29.83 in 10.0 mi NW 8.1 mph 13.8 mph N/A   Clear
11:15 PM 37.4 °F 28.9 °F 32.0 °F 81% 29.85 in 10.0 mi WNW 13.8 mph - N/A   Clear
11:55 PM 35.6 °F 27.1 °F 32.0 °F 87% 29.86 in 10.0 mi WNW 12.7 mph - N/A   Clear